This is the latest recevied weather packets stored in our database for station/object AE5HO. If no packets are shown the sender has not sent any weather packets the latest 10 day(s).
| Time | Temp. | Humidity | Pressure | Rain* | Wind** | Luminosity | Snow |
|---|---|---|---|---|---|---|---|
| 1788105664 | 33.89° C | 54% | 1017.5 hPa | 0 mm | - | 593 W/m² | - |
| 1788105360 | 34.44° C | 54% | 1017.6 hPa | 0 mm | - | 548 W/m² | - |
| 1788105055 | 33.33° C | 55% | 1017.3 hPa | 0 mm | - | 536 W/m² | - |
| 1788104750 | 33.89° C | 56% | 1017.3 hPa | 0 mm | - | 580 W/m² | - |
| 1788104447 | 33.33° C | 56% | 1017.4 hPa | 0 mm | - | 502 W/m² | - |
| 1788104143 | 32.78° C | 57% | 1017.5 hPa | 0 mm | - | 464 W/m² | - |
| 1788103843 | 32.78° C | 57% | 1017.4 hPa | 0 mm | - | 491 W/m² | - |
| 1788103537 | 33.33° C | 56% | 1017.4 hPa | 0 mm | - | 483 W/m² | - |
| 1788103237 | 32.78° C | 58% | 1017.4 hPa | 0 mm | - | 427 W/m² | - |
| 1788102936 | 32.22° C | 58% | 1017.6 hPa | 0 mm | - | 404 W/m² | - |
| 1788102632 | 32.22° C | 57% | 1017.5 hPa | 0 mm | - | 405 W/m² | - |
| 1788102331 | 32.22° C | 59% | 1017.4 hPa | 0 mm | - | 241 W/m² | - |
| 1788102026 | 31.67° C | 60% | 1017.5 hPa | 0 mm | - | 49 W/m² | - |
| 1788101725 | 31.11° C | 61% | 1017.4 hPa | 0 mm | - | 70 W/m² | - |
| 1788101421 | 31.11° C | 61% | 1017.4 hPa | 0 mm | - | 53 W/m² | - |
| 1788101116 | 31.11° C | 62% | 1017.3 hPa | 0 mm | - | 45 W/m² | - |
| 1788100812 | 30.56° C | 62% | 1017.3 hPa | 0 mm | - | 61 W/m² | - |
| 1788100508 | 30.56° C | 63% | 1017.4 hPa | 0 mm | - | 44 W/m² | - |
| 1788100206 | 30° C | 64% | 1017.4 hPa | 0 mm | - | 42 W/m² | - |
| 1788099901 | 30° C | 65% | 1017.5 hPa | 0 mm | - | 42 W/m² | - |
| 1788099595 | 30° C | 65% | 1017.4 hPa | 0 mm | - | 39 W/m² | - |
| 1788099291 | 30° C | 66% | 1017.5 hPa | 0 mm | - | 38 W/m² | - |
| 1788098986 | 29.44° C | 67% | 1017.5 hPa | 0 mm | - | 37 W/m² | - |
| 1788098681 | 29.44° C | 68% | 1017.5 hPa | 0 mm | - | 35 W/m² | - |
| 1788098380 | 28.89° C | 68% | 1017.4 hPa | 0 mm | - | 34 W/m² | - |
* Rain latest hour (hover to see other rain measurements)
** Current wind speed in m/s (hover to see current wind gust speed)